x

8419317 - Wells, Me (welm1) Weather Station

12:54 - Mon 23rd Jan 2017 All times are EST. -5 hours from GMT.

  • Wind
    14mph, 17mph gusts
  • Sea Temp 40°f
  • Luft Temp 34°f
  • Sea Pressure 1017.5mb
  • 8419317 - Wells, Me
  • 8419317 - Wells, Me

More Historic Weather Station data

Upgrade to MSW Pro to gain access to the past 30 days of data for over 8000 Wavebouys and Weather Stations around the globe.

Join Pro

Comparision Forecast

View Surf forecast
   
Mo 01/23 12:54 14 17 mph 1017.5mb 40f 34f
12:48 11 15 mph 1017.5mb - -
12:42 13 16 mph 1017.4mb - -
12:36 13 16 mph 1017.4mb - -
12:30 13 16 mph 1017.4mb 40f 34f
12:24 11 15 mph 1017.4mb 40f 34f
12:18 10 16 mph 1017.4mb 40f 34f
12:12 14 18 mph 1017.4mb 40f 35f
12:06 10 16 mph 1017.5mb 40f 35f
12:00 13 15 mph 1017.5mb 40f 35f
So 01/22 11:54 11 16 mph 1017.5mb 40f 35f
11:48 10 16 mph 1017.5mb 40f 35f
11:42 11 15 mph 1017.6mb 40f 35f
11:36 14 17 mph 1017.6mb 40f 35f
11:30 14 16 mph 1017.5mb 40f 35f
11:24 14 18 mph 1017.4mb 40f 35f
11:18 13 18 mph 1017.3mb 40f 35f
11:12 15 18 mph 1017.2mb 40f 35f
11:06 14 21 mph 1017.2mb 40f 36f
11:00 14 22 mph 1017.3mb 40f 36f
10:54 13 16 mph 1017.4mb 40f 36f
10:48 13 20 mph 1017.2mb 40f 36f
10:42 14 20 mph 1017.2mb 40f 36f
10:36 13 16 mph 1017.2mb 40f 36f
10:30 11 20 mph 1017.3mb 40f 36f
10:24 11 15 mph 1017.3mb 40f 36f
10:18 13 17 mph 1017.2mb 40f 36f
10:12 13 16 mph 1017.2mb 40f 36f
10:06 13 17 mph 1017.1mb 40f 36f
10:00 10 15 mph 1016.9mb 40f 36f
9:54 10 16 mph 1017mb 40f 37f
9:48 11 16 mph 1017mb 40f 37f
9:42 10 14 mph 1016.9mb 40f 37f
9:36 14 18 mph 1016.8mb 40f 37f
9:30 11 15 mph 1016.6mb 40f 37f
9:24 13 17 mph 1016.5mb 41f 37f
9:18 14 17 mph 1016.4mb 41f 37f
9:12 13 16 mph 1016.3mb 41f 38f
9:06 10 18 mph 1016.3mb 41f 38f
9:00 13 18 mph - 41f 38f
8:54 11 15 mph - 41f 38f
8:48 14 16 mph 1016.1mb 41f 38f
8:42 13 16 mph 1016mb 41f 38f
8:36 11 18 mph 1016mb 41f 38f
8:30 13 17 mph 1016mb 41f -
8:24 14 22 mph 1015.6mb 41f -
8:18 14 21 mph 1015.8mb 41f 38f
8:12 11 15 mph 1015.6mb 41f 38f
8:06 9 16 mph 1015.3mb 41f 38f
8:00 11 18 mph 1015.2mb 41f 38f
7:54 10 17 mph 1015.3mb 41f 38f
7:48 11 21 mph 1015.4mb 41f 38f
7:42 14 18 mph 1015.4mb 41f 38f
7:36 13 15 mph 1015.5mb 41f 38f
7:30 10 18 mph 1015.5mb 41f 38f
7:24 13 18 mph 1015.5mb 41f 38f
7:18 13 17 mph 1015.3mb 41f 38f
7:12 11 15 mph 1015.5mb 41f 38f
7:06 13 15 mph 1015.3mb 41f 38f
7:00 8 13 mph 1015.2mb 41f 38f
6:54 7 9 mph 1015.2mb 41f 37f
6:48 7 9 mph 1015.1mb 41f -
6:42 7 9 mph 1015mb 41f -
6:36 6 9 mph 1014.9mb 41f -
6:30 7 9 mph 1014.8mb 41f 37f
6:24 7 9 mph 1014.8mb 41f 37f
6:18 6 11 mph 1014.7mb 41f 37f
6:12 7 13 mph 1014.4mb 41f 37f
6:06 6 7 mph 1014.6mb 41f 37f
6:00 7 9 mph 1014.6mb 41f 37f
5:54 8 11 mph 1014.4mb 41f 37f
5:48 7 8 mph - 41f 37f
5:42 6 7 mph - 41f 37f
5:36 6 7 mph - 41f 37f
5:30 6 7 mph 1014.2mb 41f 37f
5:24 5 7 mph 1014.1mb 41f 37f
5:18 6 7 mph 1014mb 41f 37f
5:12 6
mph
1013.9mb 41f 37f
5:06 6 7 mph 1013.9mb 41f 37f
5:00 6 8 mph 1013.9mb 41f 37f
4:54 6 8 mph 1013.8mb 41f 37f
4:48 6 9 mph 1013.7mb 41f 37f
4:42 8 9 mph 1013.7mb 41f 37f
4:36 7 10 mph 1013.8mb 41f 37f
4:30 7 10 mph 1013.6mb 41f 37f
4:18 7 9 mph 1013.4mb 40f 37f
4:12 8 11 mph 1013.2mb 40f 37f
4:06 10 13 mph 1013.1mb 40f 37f
4:00 8 11 mph 1013.3mb 40f 37f
3:54 7 10 mph 1013.3mb 40f 37f
3:48 7 10 mph 1013.4mb 40f 37f
3:42 7 9 mph 1013.3mb 40f 37f
3:36 8 10 mph 1013.1mb 40f 37f
3:30 7 10 mph 1013.2mb 40f 37f
3:24 8 10 mph 1013.1mb 40f 37f
3:18 8 10 mph 1012.9mb 40f 37f
3:12 8 11 mph 1012.6mb 40f 37f
3:06 10 13 mph 1012.5mb 40f 37f
3:00 9 11 mph 1012.6mb 40f 36f
2:54 8 10 mph 1012.5mb 40f 36f
2:48 9 11 mph 1012.7mb 40f 36f
2:42 10 15 mph 1012.6mb 40f 36f
2:36 9 11 mph 1012.5mb 40f 36f
2:30 10 13 mph 1012.5mb 40f 36f
2:24 8 9 mph 1012.6mb 40f 36f
2:18 6 11 mph 1012.6mb 40f 36f
2:12 7 10 mph 1012.4mb 40f 36f
2:06 8 10 mph 1012.4mb 40f 36f
2:00 8 10 mph 1012.3mb 40f 36f
1:54 7 9 mph 1012.3mb 40f 36f
1:48 7 8 mph 1012.3mb 40f 36f
1:42 8 11 mph 1012.2mb 40f 36f
1:36 7 13 mph 1011.9mb 40f 36f
1:30 8 13 mph 1011.7mb 40f 36f
1:24 9 11 mph 1011.5mb 40f 36f
1:18 9 14 mph 1011.4mb 40f 36f
1:12 9 11 mph 1011.3mb 40f 36f
1:06 8 13 mph 1011.4mb 40f 36f
1:00 9 11 mph 1011.6mb 40f 36f
12:54 8 11 mph 1011.8mb 40f 36f
12:48 8 13 mph 1011.8mb 40f 36f
12:42 9 14 mph 1011.6mb 40f 36f
12:36 7 9 mph 1011.5mb 40f 36f
12:30 10 13 mph 1011.4mb 40f 36f
12:24 10 14 mph 1011.4mb 40f 36f
12:18 10 13 mph 1011.5mb 40f 37f
12:12 8 11 mph 1011.7mb 40f 37f
12:06 10 13 mph 1011.6mb 40f 37f
12:00 11 16 mph 1011.6mb 41f 37f
11:54 8 14 mph 1011.6mb 41f 37f
11:48 9 14 mph 1011.6mb 41f 37f
11:42 11 14 mph 1011.6mb 41f 37f
11:36 8 11 mph 1011.5mb 41f 37f
11:30 10 15 mph 1011.6mb 41f 37f
11:24 8 16 mph 1011.5mb 41f 37f
11:18 10 14 mph 1011.4mb 41f 37f
11:12 13 16 mph 1011.4mb 41f 37f
11:06 8 13 mph 1011.3mb 41f 37f
11:00 9 13 mph 1011.3mb 41f 37f
10:54 9 13 mph 1011.2mb 41f 37f
10:48 9 15 mph 1011.1mb 41f 37f
10:42 14 16 mph 1011mb 41f 37f
10:36 11 15 mph 1011.1mb 40f 37f
10:30 13 15 mph 1011.1mb 40f 37f
10:24 10 14 mph 1011.2mb 40f 37f
10:18 11 17 mph 1011.2mb 40f 37f
10:12 10 16 mph 1011.3mb 40f 38f
10:06 10 15 mph 1011.3mb 40f 38f
10:00 11 16 mph 1011.3mb 40f 38f
9:54 8 14 mph 1011.4mb 41f 38f
9:48 9 14 mph 1011.2mb 41f 38f
9:42 8 13 mph 1011.1mb 41f 38f
9:36 11 15 mph 1011.1mb 41f 39f
9:30 13 17 mph 1010.9mb 41f 39f
9:24 11 18 mph 1011mb 41f 39f
9:18 9 15 mph 1010.9mb 41f 39f
9:12 13 15 mph 1010.7mb 41f 39f
9:06 10 16 mph 1010.8mb 41f 39f
9:00 14 17 mph 1010.7mb 41f 39f
8:54 14 17 mph 1010.5mb 41f 39f
8:48 13 16 mph - 41f 39f
8:42 14 17 mph - 41f 39f
8:36 13 20 mph - 41f 39f
8:30 13 17 mph 1010.2mb 41f 39f
8:24 10 13 mph 1009.9mb 41f 39f
8:18 8 11 mph 1009.9mb 41f 38f
8:12 7 10 mph 1010mb 41f 38f
8:06 8 9 mph 1010mb 41f 37f
8:00 7 9 mph 1010.1mb 41f 37f
7:54 7 8 mph 1010mb 41f 37f
7:48 6 8 mph 1009.8mb 41f 37f
7:42 6 8 mph 1009.7mb 41f 37f
7:36 7 9 mph 1009.6mb 41f 37f
7:30 7 8 mph 1009.5mb 41f 37f
7:24 6 7 mph 1009.5mb 41f 37f
7:18 3 5 mph 1009.5mb 41f 37f
7:12 3 5 mph 1009.4mb 41f 37f
7:06 3 5 mph 1009.3mb 41f 37f
7:00 3 5 mph 1009.2mb 41f 37f
6:54 2 3 mph 1009.1mb 41f 37f
6:48  -  2 mph 1009.2mb 41f 37f
6:42 2 3 mph 1009.2mb 41f 37f
6:36 3 5 mph 1008.7mb 41f 37f
6:30 3 6 mph 1008.7mb 41f 37f
6:24 6 7 mph 1008.5mb 41f 37f
6:18 5 7 mph 1008.4mb 41f 36f
6:12 6 7 mph 1008.1mb 41f 36f
6:06 7 8 mph 1007.9mb 41f 36f
6:00 7 8 mph 1007.9mb 41f 36f
5:54 5 7 mph 1008mb 41f 37f
5:48 5 6 mph 1007.9mb 41f 37f
5:42 5 6 mph 1007.7mb 41f 37f
5:36 5 6 mph 1007.6mb 41f 37f
5:30 3 6 mph 1007.6mb 41f 37f
5:24 6 7 mph 1007.3mb 41f 36f
5:18 3 5 mph 1007.4mb 41f 36f
5:12  -  1 mph 1007.6mb 41f 36f
5:06 1 2 mph 1007.6mb 41f 36f
5:00 2
mph
1007.5mb 41f 36f
4:54  -  1 mph 1007.5mb 41f 37f
4:48 2
mph
1007.3mb 41f 36f
4:42 2 5 mph 1007.4mb 41f 36f
4:36 3 6 mph 1007.5mb 41f 37f
4:30 5 6 mph 1007.4mb 41f 37f
4:24 3 5 mph 1007.4mb 41f 36f
4:18 2 3 mph 1007.4mb 41f 35f
4:12 2 3 mph 1007.4mb 41f 35f
4:06 3
mph
1007.3mb 41f 35f
4:00 2 3 mph 1007.5mb 41f 35f
3:54 3 5 mph 1007.4mb 41f 34f
3:48 3 5 mph 1007.4mb 41f 34f
3:42 3 5 mph 1007.4mb 41f 35f
3:36 2 5 mph 1007.4mb 41f 35f
3:30 3 5 mph 1007.3mb 41f 34f
3:24 3 5 mph 1007.6mb 41f 33f
3:18 5
mph
1007.4mb 41f 33f
3:12 1 3 mph 1007.6mb 41f 33f
3:06 3 6 mph 1007.5mb 41f 34f
3:00 2 3 mph 1007.5mb 41f 33f
2:54 1 2 mph 1007.4mb 41f 32f
2:48 1 3 mph 1007.3mb 41f 32f
2:42 1 2 mph 1007.1mb 41f 31f
2:36 2 3 mph 1007mb 41f 31f
2:30 2
mph
1007mb 41f 32f
2:24 1 2 mph 1006.9mb 41f 32f
2:18  -  1 mph 1006.9mb 41f 33f
2:12 1 3 mph 1007mb 41f 33f
2:06  -  2 mph 1007mb 41f 32f
2:00 1
mph
1006.9mb 41f 32f
1:54 2
mph
1006.8mb 41f 32f
1:48  -  1 mph 1006.7mb 41f -
1:42  -  mph 1006.6mb 41f -
1:36  -  mph 1006.7mb 41f -
1:30  -  1 mph 1006.6mb 41f 32f
1:24  -  mph 1006.6mb 41f 32f
1:18  -  1 mph 1006.7mb 41f 32f
1:12 1 2 mph 1006.8mb 41f 32f
1:06 2 3 mph 1006.9mb 41f 31f
1:00 2 3 mph 1006.9mb 41f 31f
12:54 3 5 mph 1006.9mb 41f 31f
12:48 2 3 mph 1007mb 41f 31f
12:42 2 3 mph 1007.1mb 41f 32f
12:36  -  1 mph 1007.1mb 41f 33f
12:30  -  1 mph 1007.1mb 41f 33f
12:24  -  2 mph 1007.2mb 41f 32f
12:18 2 3 mph 1007.3mb 41f 33f
12:12 3
mph
1007.2mb 41f 31f
12:06 2 3 mph 1007.1mb 41f 31f
12:00  -  1 mph 1007.1mb 41f 32f
Sa 01/21 11:54 1
mph
1007.2mb 41f 32f
11:48 1 2 mph 1007.1mb 41f 32f
11:42 1
mph
1007.2mb 41f 32f
11:36  -  2 mph 1007.2mb 41f 32f
11:30 2 3 mph 1007mb 41f 32f
11:24 2
mph
1007mb 41f 33f
11:18 2 3 mph 1007mb 41f 33f
11:12 2 3 mph 1007.1mb 41f 33f
11:06 2
mph
1007mb 41f 32f
11:00 2 3 mph 1007mb 41f 33f
10:54 2
mph
1007mb 41f 33f
10:48 1 2 mph 1006.8mb 41f 33f
10:42  -  1 mph 1006.8mb 41f 33f
10:36 2
mph
1006.8mb 41f 34f
10:30 2
mph
1006.8mb 41f 34f
10:24 2
mph
1006.8mb 41f 34f
10:18 2
mph
1007mb 41f 34f
10:12 2 3 mph 1007.2mb 41f 34f
10:06 2
mph
1007.2mb 41f 35f
10:00  -  3 mph 1007.2mb 41f 36f
9:54 3 5 mph 1007.2mb 41f 37f
9:48 3 5 mph 1007.1mb 41f 36f
9:42 3 5 mph 1007.1mb 41f 35f
9:36  -  1 mph 1007.2mb 41f 35f
9:30  -  1 mph 1007.2mb 41f 34f
9:24  -  1 mph 1007.3mb 41f 34f
9:18 1 2 mph 1007.2mb 41f 34f
9:12 2 3 mph 1007.2mb 41f 33f
9:06 3
mph
1007.1mb 41f 34f
9:00 2
mph
1007.1mb 41f 34f
8:54 1 2 mph 1007.2mb 41f 35f
8:48 2 3 mph 1007.3mb 41f 36f
8:42 3
mph
1007.3mb 41f 35f
8:36 3
mph
1007.1mb 41f 35f
8:30 2 3 mph 1007.1mb 41f 35f
8:24 3
mph
1007mb 41f 35f
8:18 2 3 mph 1007mb 41f 36f
8:12 2 3 mph 1007mb 41f 36f
8:06 1 6 mph 1006.9mb 41f 36f
8:00 1 3 mph 1007mb 41f 38f
7:54 2 3 mph 1006.9mb 41f 38f
7:48 2
mph
1007mb 41f 37f
7:42 2
mph
1007mb 41f 37f
7:36  -  1 mph 1007mb 41f 37f
7:30 1 2 mph 1007mb 41f 37f
7:24 2 3 mph 1007.1mb 41f 37f
7:18 2 3 mph 1007mb 41f 37f
7:12 3
mph
1007mb 41f 37f
7:06 2 3 mph 1007mb 41f 38f
7:00 2
mph
1007.1mb 41f 38f
6:54 2
mph
1007.1mb 41f 38f
6:48 1 2 mph 1007.1mb 41f -
6:42 2
mph
1007.1mb 41f -
6:36 2
mph
1007mb 41f -
6:30 2
mph
1007.1mb 41f 40f
6:24 2 3 mph 1007.1mb 41f 40f
6:18 1 2 mph 1007.1mb 41f 40f
6:12  -  2 mph 1007mb 41f 40f
6:06 1
mph
1006.9mb 41f 40f
6:00 1
mph
1006.9mb 41f 40f
5:54 1
mph
1006.8mb 41f 40f
5:48  -  2 mph 1006.8mb 41f -
5:42 1 3 mph 1006.9mb 41f -
5:36 2
mph
1006.9mb 41f -
5:30  -  1 mph 1006.9mb 41f 41f
5:24 2 5 mph 1006.8mb 41f 41f
5:18 2 3 mph 1006.7mb 41f 41f
5:12 3 5 mph 1006.6mb 41f 41f
5:06 1 2 mph 1006.5mb 41f 41f
5:00  -  2 mph 1006.5mb 41f 41f
4:54 2 3 mph 1006.5mb 41f 41f
4:48 1 2 mph 1006.4mb 41f 41f
4:42 2 3 mph 1006.3mb 41f 41f
4:36 1 2 mph 1006.3mb 41f 41f
4:30  -  1 mph 1006.4mb 41f 41f
4:24 1
mph
1006.3mb 41f 41f
4:18  -  2 mph 1006.3mb 41f 41f
4:12 1 2 mph 1006.3mb 41f 41f
4:06 1 2 mph 1006.4mb 41f 41f
4:00 2 3 mph 1006.5mb 41f 42f
3:54 3 5 mph 1006.4mb 41f 42f
3:48 3 5 mph 1006.4mb 41f 42f
3:42 3 5 mph 1006.4mb 41f 42f
3:36 5 6 mph 1006.3mb 41f 42f
3:30 6 7 mph 1006.5mb 41f 41f
3:24 6 7 mph 1006.4mb 41f 42f
3:18 6 7 mph 1006.3mb 41f 42f
3:12 5 7 mph 1006.2mb 41f 42f
3:06 6 7 mph 1006.4mb 41f 42f
3:00 5 6 mph 1006.3mb 41f 42f
2:54 5 6 mph 1006.2mb 40f 42f
2:48 5 6 mph 1006.4mb 40f 42f
2:42 6
mph
1006.6mb 40f 42f
2:36 5 6 mph 1006.6mb 40f 42f
2:30 6 7 mph 1006.6mb 40f 42f
2:24 6 7 mph 1006.7mb 40f 42f
2:18 6 7 mph 1006.7mb 40f 43f
2:12 6 7 mph 1006.7mb 40f 44f
2:06 3 5 mph 1006.6mb 40f 44f
2:00 2 6 mph 1006.6mb 40f 44f
1:54 3 8 mph 1006.6mb 40f 43f
1:48 5 6 mph - 40f 43f
1:42 3 6 mph - 40f 43f
1:36 5 6 mph - 40f 43f
1:30 6
mph
1006.5mb 40f 43f
1:24 3 5 mph 1006.4mb 40f 42f
1:18 3 6 mph 1006.5mb 40f 42f
1:12 3 5 mph 1006.5mb 40f 42f
1:06 3 6 mph 1006.6mb 40f 42f
1:00 3 7 mph 1006.8mb 40f 42f
12:54 5 6 mph 1007mb 40f 42f
12:48 3 5 mph 1007mb 40f 43f
12:42 2 5 mph 1007.1mb 40f 42f
12:36 2 3 mph 1007.2mb 40f 42f
12:30  -  3 mph 1007.3mb 40f 42f
12:24 2 3 mph 1007.3mb 40f 41f
12:18 3
mph
1007.5mb 40f 41f
12:12 2 3 mph 1007.7mb 40f 41f
12:06 1 2 mph 1007.7mb 40f 41f
12:00  -  2 mph 1007.8mb 40f 41f
11:54 1 5 mph 1008mb 40f 41f
11:48 3 6 mph 1008.3mb 40f 41f
11:42 2 5 mph 1008.4mb 40f 40f
11:36 3 5 mph 1008.5mb 40f 40f
11:30 3 5 mph 1008.7mb 40f 40f
11:24 3 5 mph 1008.8mb 40f 40f
11:18 2 5 mph 1008.8mb 40f 40f
11:12 1 2 mph 1008.8mb 40f 41f
11:06 1 2 mph 1008.8mb 40f 41f
11:00  -  2 mph 1008.7mb 40f 40f
10:54 2 3 mph 1008.9mb 40f 40f
10:48 2 3 mph 1009.1mb 40f 40f
10:42 3 5 mph 1009.3mb 40f 39f
10:36  -  2 mph 1009.3mb 40f 40f
10:30 2 5 mph 1009.4mb 40f 39f
10:24 3 6 mph 1009.5mb 40f 39f
10:18 3 6 mph 1009.6mb 40f 39f
10:12 2 5 mph 1009.6mb 40f 39f
10:06 3 5 mph 1009.7mb 40f 39f
10:00 2 3 mph 1009.7mb 40f 39f
9:54 2 3 mph 1009.8mb 40f 39f
9:48 2 3 mph 1009.8mb 40f 39f
9:42 2 3 mph 1009.9mb 40f 39f
9:36 1 2 mph 1010mb 40f 39f
9:30  -  1 mph 1010mb 40f 39f
9:24 2 3 mph 1010.1mb 40f 38f
9:18 2 5 mph 1010.1mb 40f 38f
9:12 2 5 mph 1010.2mb 40f 38f
9:06 2 3 mph 1010.2mb 40f 38f
9:00 2 5 mph 1010.2mb 40f 38f
8:54 1 5 mph 1010.2mb 40f 38f
8:48 1 3 mph 1010.3mb 40f 38f
8:42 3 6 mph 1010.1mb 40f 37f
8:36 2 5 mph 1010mb 40f 37f
8:30 3 7 mph 1010mb 40f 37f
8:24 5 7 mph 1010.1mb 40f 37f
8:18 5 6 mph 1010mb 40f 37f
8:12 5 6 mph 1009.9mb 40f 37f
8:06 5 7 mph 1010mb 40f 37f
8:00 7 8 mph 1010mb 40f 37f
7:54 5 8 mph 1010mb 40f 37f
7:48 6 7 mph 1010.1mb 40f 37f
7:42 6 8 mph 1010.1mb 40f 36f
7:36 6 7 mph 1010.1mb 40f 37f
7:30 7 8 mph 1010mb 40f 37f
7:24 6 7 mph 1010mb 41f 37f
7:18 5 6 mph 1010mb 41f 37f
7:12 5
mph
1010.1mb 41f 37f
7:06 3
mph
1010.2mb 41f 37f
7:00 3 5 mph 1010.1mb 41f 37f
6:54 2
mph
1010.1mb 41f 37f
6:48 1 2 mph 1010.2mb 41f 37f
6:42 1 2 mph 1010.3mb 41f 36f
6:36 2 3 mph 1010.4mb 41f 36f
6:30 2 3 mph 1010.5mb 41f 36f
6:24 2 3 mph 1010.5mb 41f 36f
6:18 2 3 mph 1010.4mb 41f 36f
6:12 2 3 mph 1010.4mb 41f 37f
6:06 3 5 mph 1010.4mb 41f 37f
6:00 3 6 mph 1010.4mb 41f 37f
5:54 6 7 mph 1010.5mb 41f 37f
5:48 6 7 mph 1010.5mb 41f 37f
5:42 6 7 mph 1010.5mb 41f 37f
5:36 6
mph
1010.4mb 41f 37f
5:30 5 6 mph 1010.5mb 41f 37f
5:24 3 6 mph 1010.5mb 41f 37f
5:18 5 6 mph 1010.7mb 41f 37f
5:12 5 6 mph 1010.7mb 41f 37f
5:06 5 6 mph 1010.8mb 41f 37f
5:00 5 6 mph 1010.9mb 41f 37f
4:54 3 6 mph 1011mb 41f 37f
4:48 3 6 mph 1011mb 41f 37f
4:42 6
mph
1011mb 41f 37f
4:36 5 6 mph 1011.1mb 41f 37f
4:30 5 7 mph 1011.2mb 41f 37f
4:24 6 8 mph 1011.3mb 41f 37f
4:18 7 8 mph 1011.3mb 41f 37f
4:12 7 9 mph 1011.4mb 41f 37f
4:06 8 9 mph 1011.5mb 41f 37f
4:00 7 9 mph 1011.5mb 41f 37f
3:54 7 8 mph 1011.5mb 41f 37f
3:48 6 8 mph 1011.6mb 41f 37f
3:42 6 7 mph 1011.6mb 41f 37f
3:36 5 6 mph 1011.7mb 41f 37f
3:30 5 6 mph 1011.8mb 41f 37f
3:24 5 6 mph 1011.8mb 41f 37f
3:18 5
mph
1011.9mb 41f 37f
3:12 3 5 mph 1011.9mb 41f 37f
3:06 3
mph
1011.9mb 41f 37f
3:00 3 5 mph 1012mb 41f 37f
2:54 3 5 mph 1012mb 41f 37f
2:48 2 3 mph 1012.1mb 40f 37f
2:42 3
mph
1012.1mb 40f 37f
2:36 2 3 mph 1012.1mb 40f 37f
2:30 3
mph
1012.1mb 40f 37f
2:24 2
mph
1012.3mb 40f 37f
2:18 1 2 mph 1012.4mb 40f 37f
2:12 2
mph
1012.5mb 40f 37f
2:06  -  2 mph 1012.5mb 40f 37f
2:00 2 3 mph 1012.6mb 40f 37f
1:54 3
mph
1012.5mb 40f 37f
1:48 2 6 mph 1012.4mb 40f 37f
1:42 3 5 mph 1012.4mb 40f 37f
1:36 2 3 mph 1012.4mb 40f 36f
1:30 2 3 mph 1012.4mb 40f 36f
1:24 2 3 mph 1012.3mb 40f 36f
1:18 2 3 mph 1012.3mb 40f 36f
1:12 2 3 mph 1012.3mb 40f 36f
1:06 2
mph
1012.3mb 40f 37f
1:00 2
mph
1012.3mb 40f 36f
12:54 1 3 mph 1012.4mb 40f 36f
12:48 2 3 mph 1012.4mb 40f -
12:42 2 3 mph 1012.5mb 40f -
12:36 2 3 mph 1012.6mb 40f -
12:30 2 3 mph 1012.6mb 40f 37f
12:24 3
mph
1012.6mb 40f 37f
12:18 3 5 mph 1012.6mb 40f 37f
12:12 2 5 mph 1012.6mb 40f 37f
12:06 3 5 mph 1012.6mb 40f 37f
12:00 3 5 mph 1012.8mb 40f 37f
Fr 01/20 11:54 3
mph
1012.9mb 40f 37f
11:48 2 3 mph 1013mb 40f 37f
11:42 2 3 mph 1013mb 40f 37f
11:36 3 5 mph 1013.2mb 40f 37f
11:30 2 3 mph 1013.3mb 40f 37f
11:24 2 3 mph 1013.4mb 40f 38f
11:18 3 5 mph 1013.4mb 40f 38f
11:12 3 5 mph 1013.4mb 40f 38f
11:06 2 6 mph 1013.4mb 40f 38f
11:00 3 6 mph 1013.5mb 40f 38f
10:54 3 6 mph 1013.4mb 40f 38f
10:48 5 7 mph 1013.5mb 40f 38f
10:42 5 7 mph 1013.5mb 40f 38f
10:36 5 7 mph 1013.6mb 40f 38f
10:30 3 7 mph 1013.6mb 40f 38f
10:24 5 8 mph 1013.7mb 40f 38f
10:18 6 8 mph 1013.6mb 40f 38f
10:12 6 7 mph 1013.6mb 40f 38f
10:06 6 8 mph 1013.6mb 40f 38f
10:00 5 7 mph 1013.6mb 40f 38f
9:54 5 6 mph 1013.6mb 40f 38f
9:48 5 9 mph 1013.7mb 40f 38f
9:42 6 8 mph 1013.7mb 40f 38f
9:36 6 8 mph 1013.7mb 40f 38f
9:30 3 6 mph 1013.8mb 40f 38f
9:24 3 6 mph 1013.8mb 40f 38f
9:18 3 6 mph 1013.9mb 40f 37f
9:12 2 5 mph 1013.8mb 40f 37f
9:06 3 5 mph 1013.9mb 40f 37f
9:00 3 5 mph 1013.9mb 40f 37f
8:54 2 3 mph 1014mb 40f 36f
8:48 1 2 mph 1014mb 40f 36f
8:42 1 2 mph 1014mb 40f 36f
8:36 2
mph
1014.1mb 40f 36f
8:30 1 2 mph 1014.1mb 40f 36f
8:24  -  1 mph 1014.1mb 40f 36f
8:18  -  1 mph 1014.2mb 40f 36f
8:12  -  1 mph 1014.2mb 40f 36f
8:06  -  2 mph 1014.2mb 40f 36f
8:00 1 2 mph 1014.3mb 40f 36f
7:54 2
mph
1014.3mb 40f 35f
7:48 1 2 mph - 40f 35f
7:42 1 2 mph - 40f 35f
7:36 1 2 mph - 40f 35f
7:30 1 2 mph 1014.4mb 40f 35f
7:24 1 2 mph 1014.4mb 40f 36f
7:18 2
mph
1014.4mb 40f 35f
7:12 2 3 mph 1014.5mb 40f 35f
7:06 2
mph
1014.5mb 40f 35f
7:00 2
mph
1014.5mb 40f 35f
6:54 1 2 mph 1014.5mb 40f 35f
6:48 1 2 mph 1014.5mb 40f 35f
6:42 2
mph
1014.5mb 40f 35f
6:36 3
mph
1014.5mb 40f 36f
6:30 2 3 mph 1014.5mb 40f 36f
6:24 2
mph
1014.5mb 40f 36f
6:18 2 3 mph 1014.5mb 40f 36f
6:12 3
mph
1014.5mb 40f 35f
6:06 3
mph
1014.5mb 40f 35f
6:00 3
mph
1014.5mb 40f 35f
5:54 2
mph
1014.5mb 40f 35f
5:48 2
mph
1014.5mb 40f 36f
5:42 1 2 mph 1014.5mb 40f 36f
5:36 2
mph
1014.5mb 40f 36f
5:30 1 2 mph 1014.5mb 40f 37f
5:24 2 3 mph 1014.5mb 40f 36f
5:18 2 3 mph 1014.5mb 40f 36f
5:12 1 2 mph 1014.6mb 41f 37f
5:06  -  1 mph 1014.6mb 41f 37f
5:00  -  1 mph 1014.6mb 41f 37f
4:54  -  1 mph 1014.6mb 41f 37f
4:48  -  1 mph 1014.6mb 41f 38f
4:42 1 2 mph 1014.7mb 41f 38f
4:36 2
mph
1014.7mb 41f 38f
4:30 2
mph
1014.7mb 41f 38f
4:24 2 3 mph 1014.7mb 41f 38f
4:18 2
mph
1014.8mb 41f 38f
4:12 2
mph
1014.8mb 41f 38f
4:06 2 3 mph 1014.8mb 41f 38f
4:00 2
mph
1014.8mb 41f 38f
3:54 1 2 mph 1014.9mb 40f 38f
3:48 2 3 mph 1014.9mb 40f 38f
3:42 2
mph
1014.9mb 40f 38f
3:36 1 3 mph 1014.9mb 40f 39f
3:30 3
mph
1014.9mb 40f 39f
3:24 2 3 mph 1014.9mb 40f 39f
3:18 2 3 mph 1014.9mb 40f 39f
3:12 2 3 mph 1014.9mb 40f 38f
3:06 2 3 mph 1015mb 40f 38f
3:00 3
mph
1015.1mb 40f 39f
2:54 2 5 mph 1015.1mb 40f 39f
2:48 3 5 mph 1015.1mb 40f 39f
2:42 3 5 mph 1015.1mb 40f 39f
2:36 2 3 mph 1015.1mb 40f 39f
2:30 2 5 mph 1015.1mb 40f 39f
2:24 3 5 mph 1015.1mb 40f 39f
2:18 2 3 mph 1015.2mb 40f 39f
2:12 2 3 mph 1015.1mb 40f 38f
2:06 3
mph
1015mb 40f 39f
2:00 3 5 mph 1015mb 40f 39f
1:54 2 3 mph 1015mb 40f 39f
1:48 3 5 mph 1015mb 40f 39f
1:42 2
mph
1015mb 39f 39f
1:36 2 3 mph 1015mb 39f 39f
1:30 3
mph
1015.1mb 39f 39f
1:24 1 2 mph 1015.3mb 39f 39f
1:18 2 3 mph 1015.3mb 39f 39f
1:12 2 3 mph 1015.3mb 39f 39f
1:06 1 2 mph 1015.3mb 39f 39f
1:00 2 3 mph 1015.3mb 39f 38f
12:54 2 3 mph 1015.5mb 39f 38f
12:48 1 3 mph 1015.4mb 39f 38f
12:42 2 3 mph 1015.5mb 39f 38f
12:36 3
mph
1015.6mb 39f 38f
12:30 2 5 mph 1015.8mb 40f 38f
12:24 3 5 mph 1015.8mb 40f 38f
12:18 3 5 mph 1015.9mb 40f 38f
12:12 3 6 mph 1015.9mb 40f 38f
12:06 5
mph
1016mb 40f 38f
12:00 3 5 mph 1016.1mb 40f 38f
11:54 2 5 mph 1016.2mb 40f 38f
11:48 2 3 mph 1016.3mb 40f 38f
11:42 3
mph
1016.5mb 40f 38f
11:36 3
mph
1016.6mb 40f 38f
11:30 3 6 mph 1016.6mb 40f 38f
11:24 5
mph
1016.6mb 40f 38f
11:18 3 5 mph 1016.8mb 40f 38f
11:12 2 3 mph 1017mb 40f 38f
11:06 3 5 mph 1017.1mb 40f 38f
11:00 1 6 mph 1017.1mb 40f 38f
10:54 3 5 mph 1017.1mb 40f 38f
10:48 2 6 mph 1017.1mb 40f 38f
10:42 5 6 mph 1017.1mb 40f 38f
10:36  -  3 mph 1017.2mb 40f 38f
10:30 2 5 mph 1017.3mb 40f 38f
10:24 2 3 mph 1017.5mb 40f 38f
10:18 2 3 mph 1017.7mb 40f 37f
10:12 2
mph
1017.7mb 40f 37f
10:06 2 3 mph 1017.6mb 40f 37f
10:00 2 3 mph 1017.6mb 40f 37f
9:54 3
mph
1017.5mb 40f 37f
9:48 3 5 mph 1017.5mb 40f 36f
9:42 3 5 mph 1017.5mb 40f 36f
9:36 3 5 mph 1017.5mb 40f 36f
9:30 3 5 mph 1017.4mb 40f 36f
9:24 3 5 mph 1017.3mb 40f 36f
9:18 5 6 mph 1017.2mb 40f 35f
9:12 5
mph
1017.1mb 40f 35f
9:06 3 6 mph 1017.2mb 40f 35f
9:00 5 6 mph 1017.2mb 40f 35f
8:54 6 7 mph 1017.1mb 40f 35f
8:48 6 8 mph 1017mb 40f 35f
8:42 7
mph
1016.9mb 40f 35f
8:36 5 6 mph 1017mb 40f 35f
8:30 3 5 mph 1017.1mb 40f 35f
8:24 2 5 mph 1017.2mb 40f 35f
8:18 2 3 mph 1017.3mb 40f 35f
8:12 2 3 mph 1017.3mb 40f 35f
8:06 1 2 mph 1017.2mb 40f 35f
8:00 2
mph
1017.2mb 40f 34f
7:54 2
mph
1017.2mb 40f 34f
7:48 2
mph
1017.3mb 40f 34f
7:42 2
mph
1017.4mb 40f 34f
7:36 1 3 mph 1017.2mb 40f 34f
7:30 2 3 mph 1017.3mb 40f 34f
7:24 2 3 mph 1017.2mb 40f 34f
7:18 2 3 mph 1017.2mb 40f 34f
7:12 2
mph
1017.1mb 40f 34f
7:06 2
mph
1016.9mb 40f 34f
7:00 2 3 mph 1017mb 40f 33f
6:54 2 3 mph 1017mb 40f 33f
6:48 2 3 mph 1017mb 40f 33f
6:42 2 3 mph 1016.9mb 40f 33f
6:36 2
mph
1016.8mb 40f 34f
6:30 1 2 mph 1016.6mb 40f 33f
6:24 2
mph
1016.7mb 40f 33f
6:18 1 2 mph 1016.8mb 40f 34f
6:12 2
mph
1016.8mb 40f 34f
6:06 2
mph
1016.8mb 40f 35f
6:00 2
mph
1016.8mb 40f 35f
5:54 2 3 mph 1016.8mb 40f 35f
5:48 2 3 mph 1016.7mb 40f 34f
5:42 2 5 mph 1016.7mb 40f 34f
5:36 3 5 mph 1016.6mb 40f 34f
5:30 3
mph
1016.6mb 40f 35f
5:24 2 3 mph 1016.7mb 40f 35f
5:18 2 3 mph 1016.8mb 40f 35f
5:12 2 3 mph 1016.7mb 40f 35f
5:06 3 5 mph 1016.6mb 40f 35f
5:00 3 5 mph 1016.7mb 40f 35f
4:54 3 5 mph 1016.7mb 40f 35f
4:48 5
mph
1016.5mb 40f 35f
4:42 5
mph
1016.6mb 40f 35f
4:36 3 5 mph 1016.5mb 40f 35f
4:30 2 5 mph 1016.4mb 40f 35f
4:24 3
mph
1016.4mb 40f 35f
4:18 3 5 mph 1016.5mb 40f 35f
4:12 2 3 mph 1016.6mb 40f 35f
4:06 3 6 mph 1016.6mb 40f 35f
4:00 2 5 mph 1016.5mb 40f 35f
3:54 5 6 mph 1016.4mb 40f 35f
3:48 3 5 mph 1016.4mb 40f 35f
3:42 5 6 mph 1016.4mb 40f 35f
3:36 3 6 mph 1016.4mb 40f 35f
3:30 6
mph
1016.2mb 40f 35f
3:24 5
mph
1016.2mb 40f 35f
3:18 3 5 mph 1016.1mb 40f 35f
3:12 3 5 mph 1016.1mb 40f 35f
3:06 5
mph
1016mb 40f 35f
3:00 3 6 mph 1016.1mb 40f 35f
2:54 6
mph
1016mb 40f 36f
2:48 5 6 mph 1016mb 40f 36f
2:42 5 6 mph 1016mb 40f 36f
2:36 5 6 mph 1016.1mb 40f 36f
2:30 6 8 mph 1016mb 40f 35f
2:24 7 8 mph 1015.9mb 40f 35f
2:18 7 8 mph 1015.8mb 40f 35f
2:12 7 8 mph 1015.5mb 40f 35f
2:06 6 8 mph 1015.5mb 40f 35f
2:00 7 8 mph 1015.4mb 40f 35f
1:54 6 7 mph 1015.5mb 40f 35f
1:48 6 7 mph 1015.4mb 40f 35f
1:42 6
mph
1015.4mb 40f 35f
1:36 6
mph
1015.4mb 40f 35f
1:30 6
mph
1015.4mb 40f 35f
1:24 5 6 mph 1015.4mb 40f 35f
1:18 6
mph
1015.5mb 40f 35f
1:12 5 6 mph 1015.4mb 40f 35f
1:06 5 6 mph 1015.5mb 40f 35f
1:00 5 6 mph 1015.5mb 40f 35f
12:54 5 7 mph 1015.6mb 40f 35f
12:48 6 7 mph 1015.6mb 40f -
12:42 3 5 mph 1015.8mb 40f -
12:36 2 3 mph 1015.9mb 40f -
12:30 2 3 mph 1016mb 40f 35f
12:24 3 5 mph 1016.1mb 39f 35f
12:18 3 5 mph 1016.1mb 39f 35f
12:12 3 5 mph 1016mb 40f 35f
12:06 3 5 mph 1016.1mb 40f 35f
12:00 2 3 mph 1016.4mb 40f 35f
Do 01/19 11:54 2 3 mph 1016.6mb 40f 35f
11:48 2 5 mph 1016.9mb 40f 35f
11:42 2 6 mph 1017.1mb 40f 35f
11:36 3 5 mph 1017.3mb 40f 35f
11:30 1 3 mph 1017.3mb 40f 35f
11:24 1 2 mph 1017.2mb 40f 35f
11:18  -  2 mph 1017mb 40f 35f
11:12 1 2 mph 1017mb 40f 35f
11:06  -  2 mph 1017mb 40f 35f
11:00  -  2 mph 1017mb 40f 35f
10:54 1 3 mph 1016.9mb 40f 35f
10:48 2 3 mph 1016.9mb 40f 35f
10:42 2 3 mph 1017mb 40f 35f
10:36 3
mph
1017mb 40f 35f
10:30 3 6 mph 1017mb 40f 36f
10:24 3 7 mph 1017.1mb 40f 35f
10:18 3 6 mph 1017mb 40f 35f
10:12 2 3 mph 1017mb 40f 35f
10:06 3 5 mph 1017mb 40f 35f
10:00 3 5 mph 1016.9mb 40f 35f
9:54 5 6 mph 1016.9mb 40f 35f
9:48 2 3 mph 1016.8mb 40f 35f
9:42 1 2 mph 1016.9mb 40f 35f
9:36 1 2 mph 1016.8mb 40f 35f
9:30  -  2 mph 1016.7mb 40f 35f
9:24 1 2 mph 1016.6mb 40f 35f
9:18 2 3 mph 1016.5mb 40f 35f
9:12 2 3 mph 1016.4mb 40f 35f
9:06  -  3 mph 1016.4mb 40f 35f
9:00 2 3 mph 1016.3mb 40f 35f
8:54 2
mph
1016.2mb 40f 35f
8:48 1 5 mph 1016mb 40f 35f
8:42 3 5 mph 1016.1mb 40f 35f
8:36 5 6 mph 1016.1mb 40f 35f
8:30 3
mph
1016mb 40f 35f
8:24 2 3 mph 1016mb 40f 36f
8:18 2 6 mph 1015.9mb 40f 36f
8:12 5 6 mph 1015.9mb 40f 35f
8:06 5 9 mph 1015.9mb 40f 35f
8:00 2 3 mph 1015.8mb 40f 35f
7:54 2 3 mph 1015.6mb 40f 35f
7:48 2
mph
1015.6mb 40f 35f
7:42 2
mph
1015.7mb 40f 35f
7:36 2 3 mph 1015.6mb 40f 35f
7:30 2 3 mph 1015.6mb 40f 36f
7:24 5 6 mph 1015.6mb 40f 35f
7:18 2 3 mph 1015.6mb 40f 35f
7:12 2 3 mph 1015.6mb 40f 35f
7:06 2 5 mph 1015.5mb 40f 35f
7:00 2 3 mph 1015.4mb 40f 35f
6:54 2 3 mph 1015.3mb 40f 35f
6:48  -  2 mph 1015.3mb 40f 36f
6:42 2 3 mph 1015.3mb 40f 36f
6:36 1 3 mph 1015.2mb 40f 35f
6:30 3
mph
1015.1mb 40f 35f
6:24 2 3 mph 1015.1mb 40f 35f
6:18 2 5 mph 1014.9mb 40f 35f
6:12 3
mph
1014.8mb 40f 35f
6:06 2 3 mph 1014.7mb 40f 35f
6:00 2
mph
1014.6mb 40f 35f
5:54 1 2 mph 1014.6mb 40f 35f
5:48 2 3 mph 1014.5mb 40f 35f
5:42 3
mph
1014.4mb 40f 35f
5:36 2
mph
1014.3mb 40f 35f
5:30 1 3 mph 1014.2mb 40f 36f
5:24 2
mph
1014.2mb 40f 35f
5:18 2
mph
1014.1mb 40f 35f
5:12 2
mph
1014.1mb 40f 36f
5:06 2
mph
1014mb 40f 36f
5:00 2
mph
1013.9mb 40f 35f
4:54 2 6 mph 1013.8mb 40f 36f
4:48 3 6 mph 1013.9mb 40f 36f
4:42  -  3 mph 1013.8mb 40f 36f
4:36 3 5 mph 1013.8mb 40f 36f
4:30  -  3 mph 1013.8mb 40f 37f
4:24 2
mph
1013.6mb 40f 36f
4:18 1 2 mph 1013.6mb 40f 36f
4:12 1
mph
1013.6mb 40f 37f
4:06  -  2 mph 1013.6mb 40f 37f
4:00 2
mph
1013.6mb 40f 37f
3:54 1 2 mph 1013.7mb 40f 37f
3:48  -  2 mph 1013.6mb 40f 37f
3:42 2
mph
1013.6mb 40f 38f
3:36 1 2 mph 1013.6mb 40f 39f
3:30 1 2 mph 1013.6mb 40f 39f
3:24 1 2 mph 1013.6mb 40f 38f
3:18 2
mph
1013.5mb 40f 37f
3:12 1 2 mph 1013.5mb 40f 38f
3:06 2 3 mph 1013.5mb 40f 38f
3:00 2 3 mph 1013.4mb 40f 38f
2:54 3
mph
1013.4mb 40f 38f
2:48 2 3 mph 1013.3mb 40f 39f
2:42 2 3 mph 1013.3mb 40f 40f
2:36 2 3 mph 1013.3mb 40f 42f
2:30 2 3 mph 1013.2mb 40f 41f
2:24 3 5 mph 1013.2mb 40f 40f
2:18 2 3 mph 1013.2mb 40f 38f
2:12 2 5 mph 1013.3mb 40f 39f
2:06 5 6 mph 1013.3mb 40f 39f
2:00 5 6 mph 1013.3mb 40f 39f
1:54 5 6 mph 1013.4mb 40f 39f
1:48 5 6 mph 1013.6mb 40f 40f
1:42 2 5 mph 1013.6mb 40f 40f
1:36 3 5 mph 1013.7mb 40f 40f
1:30 3
mph
1013.7mb 40f 40f
1:24 2 3 mph 1013.7mb 40f 40f
1:18 2 3 mph 1013.8mb 39f 39f
1:12 2
mph
1013.8mb 39f 40f
1:06 2
mph
1013.9mb 38f 39f
1:00 1 2 mph 1013.9mb 38f 36f
12:54  -  2 mph 1013.8mb 38f 36f
12:48 1 2 mph 1013.8mb 38f 36f
12:42 1 3 mph 1013.8mb 37f 35f
12:36 2 5 mph 1013.9mb 37f 36f
12:30 2 3 mph 1013.9mb 37f 35f
12:24 3 5 mph 1013.9mb 37f 35f
12:18 3 6 mph 1014mb 37f 34f
12:12 1 5 mph 1014.1mb 37f 34f
12:06 2 6 mph 1014.2mb 37f 34f
12:00 2 6 mph 1014.3mb 37f 33f
11:54 3 6 mph 1014.5mb 37f 33f
11:48 2 6 mph 1014.5mb 37f 33f
11:42 5 6 mph 1014.6mb 37f 33f
11:36 3 6 mph 1014.6mb 38f 33f
11:30 5 6 mph 1014.7mb 38f 33f
11:24 5 7 mph 1014.9mb 38f 33f
11:18 5 7 mph 1015mb 38f 33f
11:12 5 7 mph 1015.1mb 38f 32f
11:06 5 8 mph 1015.2mb 38f 32f
11:00 3 8 mph 1015.4mb 38f 32f
10:54 3 5 mph 1015.5mb 38f 32f
10:48 2 6 mph 1015.6mb 38f 32f
10:42 3 5 mph 1015.6mb 38f 32f
10:36 2 5 mph 1015.5mb 38f 32f
10:30 2 3 mph 1015.6mb 38f 32f
10:24 2 3 mph 1015.7mb 38f 32f
10:18  -  1 mph 1015.8mb 38f 32f
10:12 1 2 mph 1015.9mb 38f 32f
10:06 1 2 mph 1016mb 38f 31f
10:00  -  1 mph 1015.9mb 38f 32f
9:54  -  1 mph 1015.9mb 38f 32f
9:48  -  1 mph 1016mb 38f 31f
9:42  -  1 mph 1015.9mb 38f 31f
9:36  -  1 mph 1015.8mb 38f 30f
9:30  -  1 mph 1015.7mb 38f 30f
9:24  -  1 mph 1015.7mb 38f 30f
9:18 1 2 mph 1015.7mb 38f 29f
9:12 1 2 mph 1015.9mb 39f 29f
9:06  -  3 mph 1015.9mb 39f 29f
9:00 2
mph
1016mb 39f 29f
8:54 1 2 mph 1015.9mb 39f 29f
8:48  -  2 mph 1015.9mb 39f 29f
8:42 2
mph
1016mb 39f 29f
8:36 2
mph
1016mb 39f 28f
8:30 3 5 mph 1016.1mb 39f 28f
8:24 2 3 mph 1016.1mb 39f 28f
8:18 2 3 mph 1016.1mb 39f 28f
8:12 2 3 mph 1016mb 39f 28f
8:06 3
mph
1015.9mb 39f 28f
8:00 2 3 mph 1015.9mb 39f 28f
7:54 2 3 mph 1016mb 39f 28f
7:48 3
mph
1016.1mb 39f 28f
7:42 2 3 mph 1016mb 39f 28f
7:36 2 3 mph 1015.9mb 39f 28f
7:30 1 2 mph 1016mb 39f 28f
7:24 1 3 mph 1016mb 39f 28f
7:18 2 3 mph 1016mb 39f 28f
7:12 1 2 mph 1016mb 39f 28f
7:06 1 2 mph 1015.9mb 39f 28f
7:00 2 3 mph 1015.9mb 39f 28f
6:54 2 3 mph 1015.9mb 39f 28f
6:48 2 3 mph 1015.8mb 39f 28f
6:42 2 3 mph 1015.8mb 39f 28f
6:36 2 3 mph 1015.8mb 39f 28f